This is the latest recevied weather packets stored in our database for station/object NB9X. If no packets are shown the sender has not sent any weather packets the latest 10 day(s).
| Time | Temp. | Humidity | Pressure | Rain* | Wind** | Luminosity | Snow |
|---|---|---|---|---|---|---|---|
| 1787921075 | 26.11° C | 100% | 1016.2 hPa | 0.51 mm | - | - | - |
| 1787920775 | 26.11° C | 100% | 1016 hPa | 1.02 mm | - | - | - |
| 1787920475 | 26.67° C | 100% | 1016 hPa | 4.06 mm | - | - | - |
| 1787920175 | 26.67° C | 100% | 1016.2 hPa | 5.59 mm | - | - | - |
| 1787919875 | 27.22° C | 100% | 1016.2 hPa | 5.08 mm | - | - | - |
| 1787919575 | 27.78° C | 100% | 1015.9 hPa | 5.33 mm | - | - | - |
| 1787919275 | 27.22° C | 100% | 1016 hPa | 5.33 mm | - | - | - |
| 1787918975 | 27.22° C | 100% | 1016.1 hPa | 5.33 mm | - | - | - |
| 1787918675 | 26.67° C | 100% | 1016 hPa | 5.33 mm | - | - | - |
| 1787918375 | 26.11° C | 100% | 1015.8 hPa | 5.33 mm | - | - | - |
| 1787918075 | 25.56° C | 100% | 1015.9 hPa | 5.33 mm | - | - | - |
| 1787917775 | 25.56° C | 100% | 1015.8 hPa | 5.33 mm | - | - | - |
| 1787917475 | 25° C | 100% | 1015.4 hPa | 5.33 mm | - | - | - |
| 1787917175 | 25° C | 100% | 1015.3 hPa | 4.83 mm | - | - | - |
| 1787916875 | 25.56° C | 100% | 1015.6 hPa | 1.78 mm | - | - | - |
| 1787916575 | 26.67° C | 100% | 1015.6 hPa | 0.25 mm | - | - | - |
| 1787916275 | 26.67° C | 100% | 1015.3 hPa | 0.25 mm | - | - | - |
| 1787915975 | 26.11° C | 100% | 1015.2 hPa | 0 mm | - | - | - |
| 1787915675 | 26.11° C | 100% | 1015.1 hPa | 0 mm | - | - | - |
| 1787915375 | 26.11° C | 100% | 1015.1 hPa | 0 mm | - | - | - |
| 1787915075 | 26.11° C | 100% | 1015 hPa | 0 mm | - | - | - |
| 1787914775 | 26.11° C | 100% | 1014.9 hPa | 0 mm | - | - | - |
| 1787914475 | 26.11° C | 100% | 1014.9 hPa | 0 mm | - | - | - |
| 1787914175 | 26.11° C | 100% | 1014.9 hPa | 0 mm | - | - | - |
| 1787913875 | 26.11° C | 100% | 1014.9 hPa | 0 mm | - | - | - |
* Rain latest hour (hover to see other rain measurements)
** Current wind speed in m/s (hover to see current wind gust speed)